DECAYED

STARLINK-1611, 46147 (Decayed)

Orbit data source: Space-Track

STARLINK-1611, 46147 was a payload satellite owned by SpaceX/Seattle (US) in LEO that was launched on Tue, 18 Aug 2020 UTC via an FALCON 9 launch vehicle from the Air Force Eastern Test Range (AFETR). Payload-class satellites include a variety of spacecraft equipped with specific instruments for various scientific and technological missions. These include communications satellites like Starlink; space stations such as the ISS; scientific satellites like the Hubble; Earth observation satellites from companies like Planet Labs, Umbra, and HawkEye 360; GPS; miniature CubeSats for education and research; and military/defense satellites.

Not visible in the next 10 days
Identifier
46147, 2020-057AG
Orbit
Decayed
Last TLE update
5 months ago
Origin
Manufacturer
SpaceX/Seattle
Mission
Decayed Commercial Communications
Bus & Motor
STARLINK, Unknown motor
Mass
260 kg wet, ~248 kg dry
Launch date (UTC)
2020-08-18 (5 years ago)
Launch vehicle
FALCON 9
Launch site
Air Force Eastern Test Range (AFETR)
Object type
Payload
Rocket body
Debris
Shape & HBR
Box + 1 Pan, 8.86 m
Radar Cross Section
13.562 m², Large (>1 m²)

Expand to show TLE details & history

TLE from 5 months ago
0 STARLINK-1611
1 46147U 20057AG  25030.74922398  .20239799  12288-4  10000-3 0  9990
2 46147  53.0142 286.1815 0029004 204.3251 260.1853 16.53368354246531
Epoch: 2025-01-30T17:58Z
TLE epoch observation values (Epoch: 2025-01-30T17:58:52.951Z)
Latitude
50.91129°
Longitude
-0.9498°
Altitude
139.709 km
Speed
7.827 km/s
True Right ascension
02h 35m 58s
True Declination
50° 43' 37"
Sunlit
Object was in daylight at epoch
Visualization orbit readout
Visualization observer readout
Orbital elements
Apogee altitude
149.654 km
Perigee altitude
111.897 km
Semi-major axis
6,508.912 km
Eccentricity
0.0029
Inclination
53.0142°
RAAN
286.1815°
Arg. of periapsis
204.3251°
True anomaly
Unknown
Mean anomaly
260.1853°
Eccentric anomaly
Unknown
Mean motion
4.13314 °/min
Orbital period
87.1 mins
BSTAR
0.0001
Loading maneuver chart data...
Loading SW <> Apogee altitude chart data...
Loading historical data...
Loading historical data...
Loading historical data...
Loading historical data...
Loading historical data...
Loading historical data...
Loading historical data...

STARLINK-1611 Visibility

Observer location: undefined°, undefined°

This satellite is decayed
Span
Click to sort rows by Start time (UTC) header in descending order
Start Az.
Max El. time (UTC)
Max El. Az.
Max El.
End time (UTC)
End Az.
|